一网星座-0211星 (ONEWEB-0211 )

导读

ONEWEB-0211是英国OneWeb星座旗下的低轨通信卫星,于北京时间2021年5月28日发射入轨,隶属于OneWeb第一代低轨卫星互联网星座系统。该星座计划构建全球卫星宽带网络,主要为全球偏远地区、基础设施薄弱区域提供低成本互联网接入服务,作为星座组网卫星之一,ONEWEB-0211承担着全球宽带信号覆盖与数据传输任务,助力OneWeb低轨星座实现全球互联的战略目标。

基本信息
目录编号:
48767
目录名称:
ONEWEB-0211
国际标识:
2021-045A
轨道中心:
EARTH
卫星名称:
一网星座-0211星
卫星全名:
一网星座-0211星 (ONEWEB-0211 )
卫星状态:
在轨 (已飞行1936 天)
发射日期:
2021-05-28 UTC
国别 :
英国 (GB)
星等 :
--
该卫星已列入 空间交会检测服务 Space Conjunction Data Service (SCDS) ,当前飞行风险评估等级: 无高风险
轨道信息
数据来源 国际轨道数据 AOE轨道数据
星历时间 2026-09-15T16:24:41+0800
15小时前
查看轨道信息
2026-09-15T10:00:00+0800
21小时前
查看轨道信息
半长轴 7577.414km 7577.415km
偏心率 0.0001714 0.0001971
轨道倾角 87.898° 87.896°
近地点辐角 63.922° 64.369°
升交点赤经 241.084° 241.139°
平近点角 296.208° 110.670°
近地点 1197.978km 1197.784km
远地点 1200.576km 1200.772km
周期 109.406分钟 109.406分钟
每日圈数 13.161982 13.161978
详细信息
平衡模式:
三轴稳定
覆盖范围:
全球
运营商:
一网卫星公司
运营商所在国:
英国
制造商(研发单位):
一网卫星公司
制造商所在国:
英国
使用方式:
暂无
卫星简介
OneWeb卫星网络由648颗重约125公斤的微型卫星组成,运行在1200公里的轨道上。 每颗卫星都能够提供至少每秒8千兆位的吞吐量,以使用其高吞吐量的Ku频段有效载荷为家庭和移动平台提供互联网接入。该卫星仍在工作。
2D轨道图
3D轨道图
轨道高度分析图
轨道倾角分析图
轨道综合分析图
查看轨道综合分析图
与全量物体交会距离演化趋势 订阅飞行安全评估服务
与全量物体交会风险概率演化趋势 订阅飞行安全评估服务